[[{"header":{"parameterUnit":"m.s-1","parameterCategory":1,"la1":30.2991,"la2":30.254,"lo1":-89.0895,"lo2":-89.0444,"dy":0.0017,"dx":0.0017,"nx":28,"ny":28,"refTime":"2024-07-06T21:00:00:Z","depth":0,"parameterNumber":2,"parameterNumberName":"U-component_of_WINDS"},"data":[0,0,0,0,0,0,0,0,0,0,0,0,0,0,0,0,0,0,0,0,0,0,0,0,0,0,0,0,0,0,0,0,0,0,0,0,0,0,0,0,0,0,0,0,0,0,0,0,0,0,0,0,0,0,0,0,0,0,1.3819,1.382,0,1.3909,1.391,1.3911,1.39,1.3899,1.3898,1.3896,1.3992,1.3996,1.4,0,0,0,0,0,0,0,0,0,0,0,0,0,1.3641,1.3645,1.3819,1.382,1.3821,1.3909,1.391,1.3911,1.3901,1.3899,1.3897,1.3895,1.3991,1.3996,1.4,0,0,0,0,0,0,0,0,0,0,0,0,0,1.3724,1.3646,1.3819,1.3826,1.3828,1.3909,1.391,1.3912,1.3901,1.3899,1.3897,1.3895,1.3989,1.3995,1.4001,1.4081,0,0,1.4019,1.4021,0,0,0,0,0,0,0,0,1.3719,1.373,1.3824,1.3826,1.3828,1.3891,1.3883,1.3968,1.3902,1.3873,1.3896,1.3894,1.3961,1.3969,1.399,1.4085,1.4089,1.4019,1.4023,1.4025,1.4027,0,0,0,0,0,0,0,1.3713,1.3726,1.3855,1.3826,1.3828,1.3826,1.3836,1.3899,1.3928,1.3876,1.3875,1.3886,1.3961,1.3985,1.3993,1.4091,1.4019,1.4024,1.4028,1.403,1.4255,1.4258,0,0,0,0,0,0,1.3705,1.3722,1.3852,1.3857,1.3767,1.3831,1.3842,1.3873,1.3928,1.3934,1.3887,1.3885,1.3976,1.3986,1.3996,1.4092,1.4025,1.4031,1.4034,1.4253,1.4256,1.4258,0,0,0,0,0,0,1.3701,1.3717,1.3848,1.3789,1.3806,1.3837,1.3872,1.3876,1.39,1.3936,1.3942,1.3906,1.3975,1.3988,1.4059,1.4096,1.4033,1.4039,1.425,1.4254,1.4257,1.4286,0,0,0,0,0,0,1.3696,1.3716,1.3745,1.379,1.3809,1.3909,1.3874,1.3879,1.3909,1.3907,1.3955,1.3961,1.3974,1.4051,1.4065,1.4103,1.4043,1.4247,1.4252,1.4256,1.4282,1.4291,1.4298,0,0,0,0,0,1.369,1.3751,1.3747,1.3763,1.3847,1.3911,1.3922,1.3934,1.3912,1.3943,1.3967,1.396,1.4089,1.4058,1.4074,1.4114,1.4245,1.425,1.4256,1.4279,1.4289,1.4297,0,0,0,0,0,0,1.3711,1.3757,1.3753,1.383,1.3867,1.3909,1.3948,1.3945,1.3989,1.3985,1.4,1.4011,1.4083,1.4106,1.407,1.4194,1.4164,1.4173,1.4176,1.4186,1.4194,1.4186,1.4048,0,0,0,0,0,1.3725,1.3772,1.381,1.3874,1.3893,1.3917,1.3946,1.3952,1.3991,1.4007,1.4036,1.4075,1.4124,1.4157,1.4204,1.4286,1.4296,1.4321,1.4329,1.4335,1.4342,1.4387,1.4398,1.4277,1.4276,1.4276,0,0,1.3754,1.3784,1.3814,1.3879,1.3908,1.3958,1.3931,1.3984,1.4021,1.4015,1.4084,1.4107,1.4151,1.4228,1.4263,1.4249,1.4378,1.4342,1.4347,1.4351,1.4393,1.4405,1.4415,1.428,1.428,1.4279,0,0,1.3831,1.3859,1.3915,1.3944,1.3988,1.4004,1.4018,1.4061,1.4075,1.4144,1.4141,1.4186,1.4271,1.4302,1.433,1.4418,1.4414,1.4434,1.4474,1.4517,1.4526,1.4535,1.4566,1.4577,1.4441,1.4441,1.4441,0,1.3861,1.3934,1.3945,1.3999,1.4028,1.4023,1.4081,1.4109,1.4167,1.4188,1.4171,1.4277,1.4307,1.4391,1.4412,1.4435,1.4451,1.4428,1.4524,1.4532,1.4541,1.457,1.4582,1.4443,1.4443,1.4443,1.4443,0,1.3969,1.402,1.406,1.4114,1.4148,1.4204,1.4224,1.4257,1.426,1.4278,1.4349,1.4384,1.4438,1.4459,1.4464,1.4544,1.4533,1.452,1.449,1.4554,1.4582,1.4594,1.4446,1.4446,1.4445,1.4445,0,0,1.4062,1.412,1.4135,1.4159,1.4207,1.4247,1.4303,1.4355,1.4383,1.4423,1.447,1.4542,1.453,1.4561,1.4569,1.4607,1.4674,1.4589,1.459,1.4603,1.4763,1.4772,1.4785,1.4671,1.4673,1.4675,1.4759,0,1.4143,1.4239,1.425,1.4337,1.4384,1.4381,1.4429,1.4464,1.4483,1.4526,1.4547,1.4597,1.4578,1.4596,1.4634,1.4658,1.4706,1.4652,1.4715,1.4717,1.4703,1.48,1.4809,1.4887,1.477,1.4772,1.4774,0,1.425,1.4291,1.4382,1.4423,1.4443,1.4486,1.4534,1.4576,1.4616,1.4627,1.4661,1.4664,1.4722,1.469,1.4771,1.4734,1.476,1.4776,1.4779,1.4785,1.4749,1.4807,1.4912,1.4923,1.4791,1.479,1.4789,0,1.4307,1.4386,1.445,1.4471,1.4521,1.4551,1.4573,1.4611,1.4641,1.4684,1.4704,1.4754,1.4781,1.4819,1.4836,1.4811,1.4915,1.4885,1.4926,1.4925,1.4947,1.4945,1.5057,1.4966,1.4966,1.4966,1.4966,0,1.4396,1.4451,1.4476,1.4516,1.4578,1.4591,1.4652,1.4674,1.4707,1.4751,1.4753,1.4794,1.4814,1.4859,1.4873,1.4937,1.4949,1.496,1.4963,1.4959,1.4958,1.4976,1.4971,1.4969,1.4968,1.4968,1.4967,0,1.447,1.4489,1.4558,1.4599,1.4611,1.4655,1.469,1.4729,1.4747,1.4803,1.4817,1.4845,1.4898,1.4918,1.4984,1.4993,1.5066,1.5066,1.5052,1.5053,1.5092,1.5088,1.5218,1.5236,1.5135,1.5136,1.5137,0,1.4524,1.4567,1.4612,1.4641,1.4664,1.4711,1.4741,1.4756,1.4788,1.4837,1.487,1.4922,1.4964,1.5049,1.5076,1.5126,1.5126,1.5168,1.5133,1.5128,1.5125,1.5122,1.5126,1.5174,1.5175,1.5176,1.5177,0,1.4619,1.4626,1.467,1.4716,1.4752,1.479,1.4827,1.4851,1.4872,1.4908,1.4961,1.4994,1.506,1.5112,1.5163,1.5187,1.5186,1.5188,1.5199,1.5196,1.5186,1.5191,1.5069,1.5184,1.5184,1.5183,1.5183,1.5182,1.4684,1.4721,1.4759,1.4807,1.4836,1.4871,1.4908,1.4931,1.4975,1.5028,1.5035,1.5092,1.5132,1.52,1.5226,1.5271,1.526,1.5278,1.5282,1.5286,1.5288,1.5179,1.5281,1.5281,1.5281,1.528,1.528,0,1.4778,1.4802,1.4846,1.4897,1.4935,1.493,1.497,1.5003,1.5052,1.5089,1.513,1.5191,1.5241,1.5272,1.5323,1.5354,1.5354,1.5366,1.5364,1.5369,1.5295,1.5279,1.5365,1.5365,1.5365,1.5365,1.5365,1.5365,1.4831,1.4893,1.4905,1.4982,1.5006,1.5061,1.5084,1.5116,1.5145,1.5212,1.5254,1.5273,1.5308,1.5361,1.5407,1.5415,1.5433,1.5446,1.5453,1.5383,1.5374,1.5366,1.5351,1.545,1.545,1.5523,1.5523,1.5524]},{"header":{"parameterUnit":"m.s-1","parameterCategory":1,"la1":30.2991,"la2":30.254,"lo1":-89.0895,"lo2":-89.0444,"dy":0.0017,"dx":0.0017,"nx":28,"ny":28,"refTime":"2024-07-06T21:00:00:Z","depth":0,"parameterNumber":3,"parameterNumberName":"V-component_of_WINDS"},"data":[0,0,0,0,0,0,0,0,0,0,0,0,0,0,0,0,0,0,0,0,0,0,0,0,0,0,0,0,0,0,0,0,0,0,0,0,0,0,0,0,0,0,0,0,0,0,0,0,0,0,0,0,0,0,0,0,0,0,3.369,3.3691,0,3.374,3.374,3.3741,3.3732,3.3731,3.373,3.3729,3.3777,3.3779,3.3781,0,0,0,0,0,0,0,0,0,0,0,0,0,3.3586,3.3588,3.369,3.3691,3.3692,3.374,3.374,3.3741,3.3732,3.3731,3.373,3.3729,3.3776,3.3779,3.3781,0,0,0,0,0,0,0,0,0,0,0,0,0,3.3633,3.3589,3.369,3.3693,3.3694,3.3739,3.374,3.3741,3.3732,3.3731,3.373,3.3729,3.3775,3.3778,3.3781,3.3826,0,0,3.3791,3.3792,0,0,0,0,0,0,0,0,3.363,3.3637,3.3692,3.3693,3.3694,3.3728,3.3721,3.3769,3.3733,3.3718,3.3729,3.3728,3.3762,3.3766,3.3778,3.3828,3.383,3.3791,3.3793,3.3794,3.3795,0,0,0,0,0,0,0,3.3627,3.3635,3.371,3.3693,3.3694,3.3691,3.3696,3.373,3.3746,3.3719,3.3718,3.3724,3.3762,3.3775,3.3779,3.3831,3.3791,3.3794,3.3796,3.3797,3.3922,3.3923,0,0,0,0,0,0,3.3624,3.3632,3.3708,3.3711,3.3659,3.3694,3.37,3.3719,3.3746,3.3749,3.3725,3.3724,3.377,3.3775,3.378,3.3835,3.3794,3.3797,3.3799,3.392,3.3922,3.3924,0,0,0,0,0,0,3.3621,3.363,3.3706,3.3672,3.3681,3.3697,3.3718,3.372,3.3733,3.3751,3.3753,3.3736,3.3769,3.3776,3.3815,3.3837,3.3799,3.3801,3.3919,3.3921,3.3923,3.3945,0,0,0,0,0,0,3.3618,3.363,3.3647,3.3672,3.3683,3.3741,3.372,3.3722,3.3739,3.3737,3.3761,3.3764,3.3769,3.3811,3.3818,3.384,3.3804,3.3917,3.392,3.3922,3.3942,3.3947,3.3952,0,0,0,0,0,3.3615,3.3651,3.3648,3.3658,3.3706,3.3742,3.3748,3.3754,3.3741,3.3758,3.377,3.3763,3.3833,3.3815,3.3823,3.3846,3.3915,3.3919,3.3922,3.394,3.3946,3.3952,0,0,0,0,0,0,3.3627,3.3654,3.3652,3.3697,3.3718,3.3741,3.3763,3.3761,3.3784,3.3782,3.3787,3.3792,3.3832,3.3843,3.3822,3.3891,3.3872,3.3877,3.3883,3.3889,3.3894,3.3891,3.3806,0,0,0,0,0,3.3635,3.3664,3.3685,3.3723,3.3734,3.3747,3.3763,3.3766,3.3787,3.3795,3.3809,3.3829,3.3856,3.3873,3.3898,3.3944,3.3949,3.3964,3.3969,3.3973,3.3977,3.4002,3.4009,3.3934,3.3934,3.3934,0,0,3.3652,3.367,3.3688,3.3726,3.3742,3.3771,3.3754,3.3785,3.3806,3.3799,3.3838,3.3849,3.3872,3.3914,3.3934,3.3925,3.3999,3.3977,3.398,3.3982,3.4006,3.4013,3.402,3.3937,3.3936,3.3936,0,0,3.3697,3.3714,3.3748,3.3765,3.379,3.3799,3.3807,3.3831,3.3838,3.3877,3.3873,3.3898,3.3943,3.396,3.3974,3.4027,3.4022,3.4035,3.406,3.4085,3.4091,3.4096,3.4115,3.4122,3.4039,3.4039,3.4039,0,3.3715,3.3759,3.3765,3.3797,3.3814,3.3811,3.3845,3.386,3.3892,3.3904,3.3893,3.3951,3.3966,3.4013,3.4026,3.4037,3.4046,3.4032,3.4089,3.4095,3.41,3.4118,3.4125,3.404,3.404,3.404,3.404,0,3.3779,3.381,3.3834,3.3866,3.3886,3.3918,3.3929,3.3948,3.3949,3.3959,3.3999,3.4016,3.4046,3.4057,3.4058,3.4104,3.4098,3.4088,3.4069,3.4108,3.4125,3.4132,3.4043,3.4042,3.4042,3.4041,0,0,3.3833,3.387,3.3878,3.3893,3.3921,3.3945,3.3977,3.4007,3.4023,3.4045,3.4072,3.4111,3.4103,3.412,3.4122,3.4144,3.4185,3.4132,3.4132,3.4141,3.4238,3.4245,3.4253,3.4182,3.4183,3.4184,3.4236,0,3.3881,3.394,3.3947,3.3999,3.4027,3.4025,3.4053,3.4073,3.4083,3.4108,3.4118,3.4146,3.4133,3.4143,3.4164,3.4175,3.4204,3.4172,3.4207,3.4208,3.4202,3.4262,3.4269,3.4317,3.4242,3.4244,3.4244,0,3.3945,3.3971,3.4026,3.4051,3.4063,3.4089,3.4117,3.4141,3.4163,3.4169,3.4188,3.4188,3.4221,3.42,3.4246,3.4224,3.4238,3.4246,3.4248,3.4252,3.4229,3.4267,3.4333,3.434,3.4255,3.4254,3.4253,0,3.398,3.4028,3.4067,3.408,3.411,3.4128,3.4141,3.4163,3.418,3.4204,3.4216,3.4243,3.4258,3.4279,3.4287,3.4271,3.4332,3.4312,3.4337,3.4337,3.435,3.4349,3.4419,3.4359,3.4359,3.4359,3.4359,0,3.4033,3.4067,3.4083,3.4108,3.4145,3.4153,3.419,3.4202,3.4221,3.4247,3.4246,3.427,3.4279,3.4304,3.431,3.4347,3.4353,3.4359,3.436,3.4359,3.4359,3.4369,3.4366,3.4361,3.436,3.436,3.436,0,3.4078,3.409,3.4133,3.4159,3.4166,3.4193,3.4214,3.4237,3.4247,3.428,3.4288,3.4303,3.4333,3.4343,3.4379,3.4383,3.4426,3.4424,3.4419,3.4419,3.4444,3.4442,3.4523,3.4535,3.4467,3.4468,3.4468,0,3.4112,3.4138,3.4167,3.4185,3.4199,3.4228,3.4246,3.4255,3.4274,3.4302,3.4322,3.4352,3.4376,3.4424,3.4438,3.4466,3.4465,3.4491,3.4469,3.4467,3.4465,3.4464,3.4467,3.4495,3.4496,3.4497,3.4497,0,3.417,3.4175,3.4202,3.4232,3.4254,3.4278,3.43,3.4315,3.4326,3.4348,3.4379,3.4399,3.4436,3.4466,3.4494,3.4507,3.4504,3.4504,3.4512,3.4511,3.4508,3.4511,3.4431,3.4502,3.4502,3.4501,3.4501,3.4501,3.421,3.4234,3.4258,3.4289,3.4307,3.4328,3.4352,3.4365,3.4392,3.4424,3.4427,3.4461,3.4483,3.4521,3.4535,3.4561,3.4554,3.4564,3.4567,3.457,3.4572,3.4503,3.4566,3.4566,3.4566,3.4566,3.4566,0,3.4269,3.4285,3.4313,3.4345,3.4369,3.4366,3.4391,3.4411,3.4441,3.4462,3.4487,3.4524,3.4553,3.4569,3.4598,3.4616,3.4616,3.4624,3.4623,3.4626,3.4577,3.4568,3.4624,3.4624,3.4624,3.4624,3.4624,3.4624,3.4302,3.4342,3.435,3.4399,3.4414,3.4449,3.4463,3.4483,3.45,3.4541,3.4566,3.4577,3.4597,3.4627,3.4654,3.4658,3.4669,3.4678,3.4681,3.4635,3.4629,3.4623,3.4615,3.468,3.468,3.4728,3.4728,3.4728]}]]